Aérodrome :
LOGIN :

S'inscrire | Disclaimer

   EN    FR    IT 

 










Légende :    VFR   VFR Marginal   IFR   IFR Intensif   IFR Très Intensif
Visi : 
Plafond : 
>= 8 km
>= 3000ft
5 à 8 km
1000 à 3000 ft
1500m à 5 km
500 à 1000 ft
800 à 1500m
200 à 500 ft
< 800m
< 200 ft
Symboles :   Orages  Brouillard  Fortes neiges  Fortes précipitations  Vent > 20 kt
SIGMETs :   Divers  Orages  Givrage  Turbulence  Onde Orograph.  Cendres Volcan.






- Altitude de l'aérodrome : 665 ft
- Code IATA : NOC


EIKN - Connaught / Knock- Ireland West

METAR N/A
TAF TAF EIKN
Valide du 02 à 18h jusqu'au 03 à 18h UTC


021700Z 0218/0318 25006KT 9999 BKN035
PROB30
TEMPO 0218/0222 -SHRA BKN010 SCT018CB
TEMPO 0222/0307 3000 BR
PROB40
TEMPO 0302/0307 0500 FG BKN001
TEMPO 0311/0318 -SHRA SCT020CB
PROB30
TEMPO 0315/0318 4000 SHRA BKN010



MET'MAP, la Météo Aéronautique d'un coup d'oeil ! - Copyright ORBIFLY Décembre 2007 - Disclaimer

ORBIFLY MET'MAP TEAM :

Programmation & Développement : Alexandra Zaïnal
Sur une idée originale de : Baudouin d'Aumeries
Assistance à la programmation : Marc-Olivier Méhu
Soutien technique & logistique : Manuel Goepfert

Contact : metmap@orbifly.com




SOURCES & CREDITS :

   NOAA